SL-16 R/B (17590 NORAD) Tracking and Keplerian Element Data

This shows tracking and keplerian element data for the satellite.

Feedback or suggestion? Click here.




ElementValue
Catalog17590
NameSL-16 R/B
Epoch Orbit405
Epoch Day354.00213924
Epoch Year2025
RAAN84.4154
Inclination71.0038
Eccentricity0.0007264
Argument of Perigee251.9177
Mean Anonmoly108.1156
Mean Motion14.17155059
Decay Rate2.11E-06
L11 17590U 87027B 25354.00213924 .00000211 00000+0 12822-3 0 9997
L22 17590 71.0038 84.4154 0007264 251.9177 108.1156 14.17155059 4059



Live tracking and technical data element details for SL-16 R/B (NORAD 17590). SL-16 R/B can be tracked NOW for your location showing map with azimuth and elevation plus other details from your city location.







IsCatalogInMostPopularTable: catalog: 17590, numindb: 439
Update: records affected: 1



GetName: 17590 SL-16 R/B

Hit Count: updated at: Thu, 16 Apr 2026 04:47:53 GMT